Year,Month,Day,Hour,Minute,Value (Times are PST for temperature in C)
2014,09,16,00,00,15.10
2014,09,16,00,01,15.10
2014,09,16,00,02,15.00
2014,09,16,00,03,15.00
2014,09,16,00,04,15.00
2014,09,16,00,05,15.00
2014,09,16,00,06,14.90
2014,09,16,00,07,14.90
2014,09,16,00,08,14.90
2014,09,16,00,09,14.90
2014,09,16,00,10,14.90
2014,09,16,00,11,14.90
2014,09,16,00,12,14.90
2014,09,16,00,13,14.90
2014,09,16,00,14,14.80
2014,09,16,00,15,14.80
2014,09,16,00,16,14.80
2014,09,16,00,17,14.80
2014,09,16,00,18,14.80
2014,09,16,00,19,14.70
2014,09,16,00,20,14.70
2014,09,16,00,21,14.70
2014,09,16,00,22,14.70
2014,09,16,00,23,14.70
2014,09,16,00,24,14.60
2014,09,16,00,25,14.60
2014,09,16,00,26,14.60
2014,09,16,00,27,14.60
2014,09,16,00,28,14.60
2014,09,16,00,29,14.50
2014,09,16,00,30,14.50
2014,09,16,00,31,14.40
2014,09,16,00,32,14.40
2014,09,16,00,33,14.40
2014,09,16,00,34,14.30
2014,09,16,00,35,14.30
2014,09,16,00,36,14.30
2014,09,16,00,37,14.30
2014,09,16,00,38,14.20
2014,09,16,00,39,14.20
2014,09,16,00,40,14.20
2014,09,16,00,41,14.20
2014,09,16,00,42,14.20
2014,09,16,00,43,14.10
2014,09,16,00,44,14.10
2014,09,16,00,45,14.10
2014,09,16,00,46,14.10
2014,09,16,00,47,14.00
2014,09,16,00,48,14.00
2014,09,16,00,49,13.90
2014,09,16,00,50,13.90
2014,09,16,00,51,13.90
2014,09,16,00,52,13.90
2014,09,16,00,53,13.80
2014,09,16,00,54,13.80
2014,09,16,00,55,13.80
2014,09,16,00,56,13.80
2014,09,16,00,57,13.80
2014,09,16,00,58,13.80
2014,09,16,00,59,13.80
2014,09,16,01,00,13.70
2014,09,16,01,02,13.70
2014,09,16,01,03,13.70
2014,09,16,01,04,13.70
2014,09,16,01,05,13.60
2014,09,16,01,06,13.60
2014,09,16,01,07,13.60
2014,09,16,01,08,13.60
2014,09,16,01,09,13.60
2014,09,16,01,10,13.60
2014,09,16,01,11,13.50
2014,09,16,01,12,13.50
2014,09,16,01,13,13.50
2014,09,16,01,14,13.50
2014,09,16,01,15,13.40
2014,09,16,01,16,13.40
2014,09,16,01,17,13.40
2014,09,16,01,18,13.40
2014,09,16,01,19,13.40
2014,09,16,01,20,13.40
2014,09,16,01,21,13.30
2014,09,16,01,22,13.30
2014,09,16,01,23,13.30
2014,09,16,01,24,13.30
2014,09,16,01,25,13.30
2014,09,16,01,26,13.30
2014,09,16,01,27,13.20
2014,09,16,01,28,13.20
2014,09,16,01,29,13.20
2014,09,16,01,30,13.20
2014,09,16,01,31,13.10
2014,09,16,01,32,13.10
2014,09,16,01,33,13.10
2014,09,16,01,34,13.10
2014,09,16,01,35,13.10
2014,09,16,01,36,13.00
2014,09,16,01,37,13.00
2014,09,16,01,38,12.90
2014,09,16,01,39,12.90
2014,09,16,01,41,12.90
2014,09,16,01,42,12.90
2014,09,16,01,43,12.80
2014,09,16,01,44,12.80
2014,09,16,01,45,12.80
2014,09,16,01,46,12.80
2014,09,16,01,47,12.80
2014,09,16,01,48,12.80
2014,09,16,01,49,12.70
2014,09,16,01,50,12.70
2014,09,16,01,51,12.70
2014,09,16,01,52,12.70
2014,09,16,01,53,12.70
2014,09,16,01,54,12.70
2014,09,16,01,55,12.60
2014,09,16,01,56,12.60
2014,09,16,01,57,12.60
2014,09,16,01,58,12.60
2014,09,16,01,59,12.50
2014,09,16,02,00,12.50
2014,09,16,02,01,12.40
2014,09,16,02,02,12.40
2014,09,16,02,03,12.40
2014,09,16,02,04,12.40
2014,09,16,02,05,12.40
2014,09,16,02,06,12.30
2014,09,16,02,07,12.30
2014,09,16,02,08,12.30
2014,09,16,02,09,12.30
2014,09,16,02,10,12.30
2014,09,16,02,11,12.30
2014,09,16,02,12,12.30
2014,09,16,02,13,12.20
2014,09,16,02,14,12.20
2014,09,16,02,15,12.20
2014,09,16,02,16,12.20
2014,09,16,02,17,12.20
2014,09,16,02,18,12.20
2014,09,16,02,19,12.20
2014,09,16,02,20,12.20
2014,09,16,02,21,12.20
2014,09,16,02,22,12.20
2014,09,16,02,23,12.10
2014,09,16,02,24,12.10
2014,09,16,02,25,12.10
2014,09,16,02,26,12.10
2014,09,16,02,27,12.10
2014,09,16,02,28,12.10
2014,09,16,02,29,12.10
2014,09,16,02,30,12.10
2014,09,16,02,31,12.00
2014,09,16,02,32,12.00
2014,09,16,02,33,11.90
2014,09,16,02,34,11.90
2014,09,16,02,35,11.90
2014,09,16,02,36,11.90
2014,09,16,02,37,11.90
2014,09,16,02,38,11.80
2014,09,16,02,39,11.80
2014,09,16,02,40,11.80
2014,09,16,02,41,11.80
2014,09,16,02,42,11.80
2014,09,16,02,43,11.80
2014,09,16,02,44,11.70
2014,09,16,02,45,11.70
2014,09,16,02,46,11.70
2014,09,16,02,47,11.70
2014,09,16,02,48,11.70
2014,09,16,02,49,11.70
2014,09,16,02,50,11.70
2014,09,16,02,51,11.60
2014,09,16,02,52,11.60
2014,09,16,02,53,11.60
2014,09,16,02,54,11.60
2014,09,16,02,55,11.60
2014,09,16,02,56,11.60
2014,09,16,02,57,11.60
2014,09,16,02,58,11.60
2014,09,16,02,59,11.60
2014,09,16,03,00,11.60
2014,09,16,03,01,11.60
2014,09,16,03,02,11.60
2014,09,16,03,03,11.60
2014,09,16,03,04,11.60
2014,09,16,03,05,11.60
2014,09,16,03,06,11.50
2014,09,16,03,07,11.50
2014,09,16,03,08,11.50
2014,09,16,03,09,11.40
2014,09,16,03,10,11.40
2014,09,16,03,11,11.40
2014,09,16,03,12,11.40
2014,09,16,03,13,11.40
2014,09,16,03,14,11.40
2014,09,16,03,15,11.40
2014,09,16,03,16,11.40
2014,09,16,03,17,11.40
2014,09,16,03,18,11.40
2014,09,16,03,19,11.40
2014,09,16,03,20,11.30
2014,09,16,03,21,11.30
2014,09,16,03,22,11.30
2014,09,16,03,23,11.30
2014,09,16,03,24,11.30
2014,09,16,03,25,11.30
2014,09,16,03,26,11.30
2014,09,16,03,27,11.30
2014,09,16,03,28,11.30
2014,09,16,03,29,11.30
2014,09,16,03,30,11.30
2014,09,16,03,31,11.30
2014,09,16,03,32,11.30
2014,09,16,03,33,11.30
2014,09,16,03,34,11.30
2014,09,16,03,35,11.30
2014,09,16,03,36,11.30
2014,09,16,03,37,11.30
2014,09,16,03,38,11.30
2014,09,16,03,39,11.30
2014,09,16,03,40,11.30
2014,09,16,03,41,11.30
2014,09,16,03,42,11.30
2014,09,16,03,43,11.30
2014,09,16,03,44,11.30
2014,09,16,03,45,11.30
2014,09,16,03,46,11.30
2014,09,16,03,47,11.30
2014,09,16,03,49,11.30
2014,09,16,03,50,11.30
2014,09,16,03,51,11.30
2014,09,16,03,52,11.30
2014,09,16,03,53,11.30
2014,09,16,03,54,11.30
2014,09,16,03,55,11.30
2014,09,16,03,56,11.30
2014,09,16,03,57,11.40
2014,09,16,03,58,11.30
2014,09,16,03,59,11.30
2014,09,16,04,00,11.30
2014,09,16,04,01,11.30
2014,09,16,04,02,11.30
2014,09,16,04,03,11.30
2014,09,16,04,04,11.30
2014,09,16,04,05,11.30
2014,09,16,04,06,11.30
2014,09,16,04,07,11.30
2014,09,16,04,08,11.30
2014,09,16,04,09,11.30
2014,09,16,04,10,11.30
2014,09,16,04,11,11.30
2014,09,16,04,12,11.30
2014,09,16,04,13,11.30
2014,09,16,04,14,11.30
2014,09,16,04,15,11.20
2014,09,16,04,16,11.20
2014,09,16,04,17,11.20
2014,09,16,04,18,11.20
2014,09,16,04,19,11.20
2014,09,16,04,20,11.20
2014,09,16,04,21,11.20
2014,09,16,04,22,11.20
2014,09,16,04,23,11.20
2014,09,16,04,24,11.20
2014,09,16,04,25,11.20
2014,09,16,04,26,11.20
2014,09,16,04,27,11.20
2014,09,16,04,28,11.20
2014,09,16,04,29,11.20
2014,09,16,04,30,11.20
2014,09,16,04,31,11.10
2014,09,16,04,32,11.10
2014,09,16,04,33,11.10
2014,09,16,04,34,11.10
2014,09,16,04,35,11.10
2014,09,16,04,36,11.10
2014,09,16,04,37,11.00
2014,09,16,04,38,11.00
2014,09,16,04,39,11.00
2014,09,16,04,40,11.00
2014,09,16,04,41,10.90
2014,09,16,04,42,10.90
2014,09,16,04,43,10.90
2014,09,16,04,44,10.90
2014,09,16,04,45,10.80
2014,09,16,04,46,10.80
2014,09,16,04,47,10.80
2014,09,16,04,48,10.80
2014,09,16,04,49,10.70
2014,09,16,04,50,10.70
2014,09,16,04,51,10.70
2014,09,16,04,52,10.70
2014,09,16,04,53,10.70
2014,09,16,04,54,10.60
2014,09,16,04,55,10.60
2014,09,16,04,56,10.60
2014,09,16,04,57,10.60
2014,09,16,04,58,10.60
2014,09,16,04,59,10.60
2014,09,16,05,00,10.60
2014,09,16,05,01,10.60
2014,09,16,05,03,10.60
2014,09,16,05,04,10.60
2014,09,16,05,05,10.60
2014,09,16,05,06,10.60
2014,09,16,05,07,10.60
2014,09,16,05,08,10.60
2014,09,16,05,09,10.50
2014,09,16,05,10,10.50
2014,09,16,05,11,10.50
2014,09,16,05,12,10.50
2014,09,16,05,13,10.50
2014,09,16,05,14,10.50
2014,09,16,05,15,10.40
2014,09,16,05,16,10.40
2014,09,16,05,17,10.40
2014,09,16,05,18,10.50
2014,09,16,05,19,10.50
2014,09,16,05,20,10.50
2014,09,16,05,21,10.50
2014,09,16,05,22,10.50
2014,09,16,05,23,10.50
2014,09,16,05,24,10.50
2014,09,16,05,25,10.50
2014,09,16,05,26,10.50
2014,09,16,05,27,10.50
2014,09,16,05,28,10.40
2014,09,16,05,29,10.40
2014,09,16,05,30,10.40
2014,09,16,05,31,10.40
2014,09,16,05,32,10.40
2014,09,16,05,33,10.40
2014,09,16,05,34,10.30
2014,09,16,05,35,10.30
2014,09,16,05,36,10.30
2014,09,16,05,37,10.30
2014,09,16,05,38,10.30
2014,09,16,05,39,10.30
2014,09,16,05,40,10.30
2014,09,16,05,41,10.30
2014,09,16,05,42,10.30
2014,09,16,05,43,10.30
2014,09,16,05,44,10.30
2014,09,16,05,45,10.30
2014,09,16,05,46,10.30
2014,09,16,05,47,10.20
2014,09,16,05,48,10.20
2014,09,16,05,49,10.20
2014,09,16,05,50,10.20
2014,09,16,05,51,10.20
2014,09,16,05,52,10.20
2014,09,16,05,53,10.20
2014,09,16,05,54,10.20
2014,09,16,05,55,10.10
2014,09,16,05,56,10.10
2014,09,16,05,57,10.10
2014,09,16,05,58,10.10
2014,09,16,05,59,10.10
2014,09,16,06,00,10.10
2014,09,16,06,01,10.10
2014,09,16,06,02,10.10
2014,09,16,06,03,10.20
2014,09,16,06,04,10.20
2014,09,16,06,05,10.20
2014,09,16,06,06,10.20
2014,09,16,06,07,10.30
2014,09,16,06,08,10.30
2014,09,16,06,10,10.30
2014,09,16,06,11,10.30
2014,09,16,06,12,10.30
2014,09,16,06,13,10.30
2014,09,16,06,14,10.20
2014,09,16,06,15,10.20
2014,09,16,06,16,10.20
2014,09,16,06,17,10.20
2014,09,16,06,18,10.20
2014,09,16,06,19,10.20
2014,09,16,06,20,10.20
2014,09,16,06,21,10.20
2014,09,16,06,22,10.20
2014,09,16,06,23,10.20
2014,09,16,06,24,10.20
2014,09,16,06,25,10.20
2014,09,16,06,26,10.20
2014,09,16,06,27,10.20
2014,09,16,06,28,10.20
2014,09,16,06,29,10.20
2014,09,16,06,30,10.30
2014,09,16,06,31,10.30
2014,09,16,06,32,10.30
2014,09,16,06,33,10.30
2014,09,16,06,34,10.30
2014,09,16,06,35,10.30
2014,09,16,06,36,10.30
2014,09,16,06,37,10.30
2014,09,16,06,38,10.20
2014,09,16,06,39,10.20
2014,09,16,06,40,10.20
2014,09,16,06,41,10.20
2014,09,16,06,42,10.10
2014,09,16,06,43,10.10
2014,09,16,06,44,10.10
2014,09,16,06,45,10.10
2014,09,16,06,46,10.10
2014,09,16,06,47,10.10
2014,09,16,06,48,10.10
2014,09,16,06,49,10.00
2014,09,16,06,50,10.00
2014,09,16,06,51,9.90
2014,09,16,06,52,9.90
2014,09,16,06,53,9.90
2014,09,16,06,54,9.90
2014,09,16,06,55,9.80
2014,09,16,06,56,9.80
2014,09,16,06,57,9.70
2014,09,16,06,58,9.70
2014,09,16,06,59,9.70
2014,09,16,07,00,9.60
2014,09,16,07,01,9.60
2014,09,16,07,02,9.60
2014,09,16,07,03,9.60
2014,09,16,07,04,9.60
2014,09,16,07,05,9.60
2014,09,16,07,06,9.60
2014,09,16,07,07,9.60
2014,09,16,07,08,9.60
2014,09,16,07,09,9.40
2014,09,16,07,10,9.40
2014,09,16,07,11,9.40
2014,09,16,07,12,9.30
2014,09,16,07,13,9.30
2014,09,16,07,14,9.30
2014,09,16,07,15,9.30
2014,09,16,07,16,9.30
2014,09,16,07,17,9.30
2014,09,16,07,18,9.30
2014,09,16,07,19,9.30
2014,09,16,07,20,9.30
2014,09,16,07,21,9.30
2014,09,16,07,22,9.30
2014,09,16,07,23,9.30
2014,09,16,07,24,9.30
2014,09,16,07,26,9.20
2014,09,16,07,27,9.20
2014,09,16,07,28,9.20
2014,09,16,07,29,9.20
2014,09,16,07,30,9.20
2014,09,16,07,31,9.20
2014,09,16,07,32,9.20
2014,09,16,07,33,9.20
2014,09,16,07,34,9.20
2014,09,16,07,35,9.20
2014,09,16,07,36,9.20
2014,09,16,07,37,9.20
2014,09,16,07,38,9.20
2014,09,16,07,39,9.20
2014,09,16,07,40,9.20
2014,09,16,07,41,9.20
2014,09,16,07,42,9.30
2014,09,16,07,43,9.30
2014,09,16,07,44,9.30
2014,09,16,07,45,9.30
2014,09,16,07,46,9.30
2014,09,16,07,47,9.30
2014,09,16,07,48,9.30
2014,09,16,07,49,9.30
2014,09,16,07,50,9.30
2014,09,16,07,51,9.30
2014,09,16,07,52,9.40
2014,09,16,07,53,9.40
2014,09,16,07,54,9.40
2014,09,16,07,55,9.40
2014,09,16,07,56,9.40
2014,09,16,07,57,9.50
2014,09,16,07,58,9.50
2014,09,16,07,59,9.50
2014,09,16,08,00,9.50
2014,09,16,08,01,9.60
2014,09,16,08,02,9.60
2014,09,16,08,03,9.60
2014,09,16,08,04,9.60
2014,09,16,08,05,9.60
2014,09,16,08,06,9.70
2014,09,16,08,07,9.70
2014,09,16,08,08,9.70
2014,09,16,08,09,9.70
2014,09,16,08,10,9.80
2014,09,16,08,11,9.80
2014,09,16,08,12,9.80
2014,09,16,08,13,9.80
2014,09,16,08,14,9.90
2014,09,16,08,15,9.90
2014,09,16,08,16,9.90
2014,09,16,08,17,10.00
2014,09,16,08,18,10.10
2014,09,16,08,19,10.10
2014,09,16,08,20,10.20
2014,09,16,08,21,10.20
2014,09,16,08,22,10.30
2014,09,16,08,23,10.30
2014,09,16,08,24,10.40
2014,09,16,08,25,10.40
2014,09,16,08,26,10.50
2014,09,16,08,27,10.60
2014,09,16,08,28,10.70
2014,09,16,08,29,10.70
2014,09,16,08,30,10.80
2014,09,16,08,31,10.80
2014,09,16,08,32,10.90
2014,09,16,08,33,11.00
2014,09,16,08,34,11.10
2014,09,16,08,35,11.20
2014,09,16,08,36,11.20
2014,09,16,08,37,11.30
2014,09,16,08,38,11.30
2014,09,16,08,39,11.40
2014,09,16,08,40,11.40
2014,09,16,08,41,11.50
2014,09,16,08,42,11.60
2014,09,16,08,43,11.60
2014,09,16,08,44,11.60
2014,09,16,08,45,11.70
2014,09,16,08,46,11.70
2014,09,16,08,47,11.80
2014,09,16,08,48,11.80
2014,09,16,08,49,11.90
2014,09,16,08,50,11.90
2014,09,16,08,51,12.00
2014,09,16,08,52,12.10
2014,09,16,08,53,12.10
2014,09,16,08,54,12.10
2014,09,16,08,55,12.20
2014,09,16,08,56,12.20
2014,09,16,08,57,12.30
2014,09,16,08,58,12.30
2014,09,16,08,59,12.40
2014,09,16,09,00,12.40
2014,09,16,09,01,12.50
2014,09,16,09,02,12.60
2014,09,16,09,03,12.60
2014,09,16,09,04,12.70
2014,09,16,09,05,12.70
2014,09,16,09,06,12.80
2014,09,16,09,07,12.80
2014,09,16,09,08,12.80
2014,09,16,09,09,12.90
2014,09,16,09,10,12.90
2014,09,16,09,11,13.00
2014,09,16,09,12,13.10
2014,09,16,09,13,13.10
2014,09,16,09,14,13.20
2014,09,16,09,15,13.30
2014,09,16,09,16,13.30
2014,09,16,09,17,13.30
2014,09,16,09,18,13.40
2014,09,16,09,20,13.50
2014,09,16,09,21,13.60
2014,09,16,09,22,13.70
2014,09,16,09,23,13.70
2014,09,16,09,24,13.80
2014,09,16,09,25,13.80
2014,09,16,09,26,13.90
2014,09,16,09,27,13.90
2014,09,16,09,28,14.00
2014,09,16,09,29,14.10
2014,09,16,09,30,14.10
2014,09,16,09,31,14.20
2014,09,16,09,32,14.20
2014,09,16,09,33,14.20
2014,09,16,09,34,14.30
2014,09,16,09,35,14.30
2014,09,16,09,36,14.40
2014,09,16,09,37,14.40
2014,09,16,09,38,14.50
2014,09,16,09,39,14.60
2014,09,16,09,40,14.60
2014,09,16,09,41,14.70
2014,09,16,09,42,14.80
2014,09,16,09,43,14.80
2014,09,16,09,44,14.90
2014,09,16,09,45,14.90
2014,09,16,09,46,15.00
2014,09,16,09,47,15.10
2014,09,16,09,48,15.10
2014,09,16,09,49,15.10
2014,09,16,09,50,15.10
2014,09,16,09,51,15.10
2014,09,16,09,52,15.10
2014,09,16,09,53,15.10
2014,09,16,09,54,15.20
2014,09,16,09,55,15.20
2014,09,16,09,56,15.30
2014,09,16,09,57,15.30
2014,09,16,09,58,15.30
2014,09,16,09,59,15.40
2014,09,16,10,00,15.40
2014,09,16,10,01,15.50
2014,09,16,10,02,15.60
2014,09,16,10,03,15.60
2014,09,16,10,04,15.70
2014,09,16,10,05,15.70
2014,09,16,10,06,15.70
2014,09,16,10,07,15.80
2014,09,16,10,08,15.80
2014,09,16,10,09,15.90
2014,09,16,10,10,15.90
2014,09,16,10,11,16.00
2014,09,16,10,12,16.00
2014,09,16,10,13,16.10
2014,09,16,10,14,16.10
2014,09,16,10,15,16.10
2014,09,16,10,16,16.20
2014,09,16,10,17,16.20
2014,09,16,10,18,16.30
2014,09,16,10,19,16.30
2014,09,16,10,20,16.30
2014,09,16,10,21,16.30
2014,09,16,10,22,16.30
2014,09,16,10,23,16.30
2014,09,16,10,24,16.30
2014,09,16,10,25,16.30
2014,09,16,10,26,16.30
2014,09,16,10,27,16.30
2014,09,16,10,28,16.30
2014,09,16,10,29,16.30
2014,09,16,10,30,16.40
2014,09,16,10,31,16.40
2014,09,16,10,32,16.40
2014,09,16,10,33,16.40
2014,09,16,10,34,16.50
2014,09,16,10,35,16.60
2014,09,16,10,36,16.60
2014,09,16,10,37,16.70
2014,09,16,10,38,16.70
2014,09,16,10,39,16.80
2014,09,16,10,40,16.80
2014,09,16,10,41,16.90
2014,09,16,10,42,16.90
2014,09,16,10,43,17.10
2014,09,16,10,44,17.10
2014,09,16,10,45,17.20
2014,09,16,10,46,17.20
2014,09,16,10,47,17.20
2014,09,16,10,48,17.30
2014,09,16,10,49,17.30
2014,09,16,10,50,17.30
2014,09,16,10,51,17.30
2014,09,16,10,52,17.40
2014,09,16,10,53,17.40
2014,09,16,10,54,17.40
2014,09,16,10,55,17.50
2014,09,16,10,56,17.60
2014,09,16,10,57,17.60
2014,09,16,10,58,17.70
2014,09,16,10,59,17.80
2014,09,16,11,00,17.80
2014,09,16,11,01,17.90
2014,09,16,11,02,18.00
2014,09,16,11,03,18.00
2014,09,16,11,04,18.00
2014,09,16,11,05,18.20
2014,09,16,11,06,18.20
2014,09,16,11,07,18.30
2014,09,16,11,08,18.30
2014,09,16,11,09,18.30
2014,09,16,11,10,18.40
2014,09,16,11,11,18.40
2014,09,16,11,12,18.50
2014,09,16,11,13,18.50
2014,09,16,11,14,18.60
2014,09,16,11,15,18.50
2014,09,16,11,16,18.60
2014,09,16,11,17,18.60
2014,09,16,11,18,18.60
2014,09,16,11,19,18.70
2014,09,16,11,20,18.80
2014,09,16,11,21,18.90
2014,09,16,11,22,18.90
2014,09,16,11,23,19.00
2014,09,16,11,24,19.10
2014,09,16,11,25,19.10
2014,09,16,11,26,19.20
2014,09,16,11,27,19.20
2014,09,16,11,28,19.30
2014,09,16,11,29,19.40
2014,09,16,11,30,19.40
2014,09,16,11,31,19.60
2014,09,16,11,32,19.70
2014,09,16,11,33,19.70
2014,09,16,11,34,19.80
2014,09,16,11,35,19.90
2014,09,16,11,36,20.10
2014,09,16,11,37,20.10
2014,09,16,11,38,20.20
2014,09,16,11,39,20.20
2014,09,16,11,40,20.30
2014,09,16,11,41,20.30
2014,09,16,11,42,20.30
2014,09,16,11,43,20.30
2014,09,16,11,44,20.40
2014,09,16,11,45,20.40
2014,09,16,11,46,20.40
2014,09,16,11,47,20.50
2014,09,16,11,48,20.50
2014,09,16,11,49,20.50
2014,09,16,11,50,20.50
2014,09,16,11,51,20.50
2014,09,16,11,52,20.60
2014,09,16,11,53,20.60
2014,09,16,11,54,20.60
2014,09,16,11,55,20.60
2014,09,16,11,57,20.60
2014,09,16,11,58,20.60
2014,09,16,11,59,20.70
2014,09,16,12,00,20.70
2014,09,16,12,01,20.70
2014,09,16,12,02,20.80
2014,09,16,12,03,20.80
2014,09,16,12,04,20.90
2014,09,16,12,05,21.00
2014,09,16,12,06,21.00
2014,09,16,12,07,21.10
2014,09,16,12,08,21.10
2014,09,16,12,09,21.10
2014,09,16,12,10,21.20
2014,09,16,12,11,21.20
2014,09,16,12,12,21.30
2014,09,16,12,13,21.40
2014,09,16,12,14,21.40
2014,09,16,12,15,21.50
2014,09,16,12,16,21.60
2014,09,16,12,17,21.70
2014,09,16,12,18,21.70
2014,09,16,12,19,21.80
2014,09,16,12,20,21.80
2014,09,16,12,21,21.90
2014,09,16,12,22,22.00
2014,09,16,12,23,22.10
2014,09,16,12,24,22.10
2014,09,16,12,25,22.20
2014,09,16,12,26,22.20
2014,09,16,12,27,22.30
2014,09,16,12,28,22.30
2014,09,16,12,29,22.30
2014,09,16,12,30,22.30
2014,09,16,12,31,22.30
2014,09,16,12,32,22.40
2014,09,16,12,33,22.40
2014,09,16,12,34,22.50
2014,09,16,12,35,22.60
2014,09,16,12,36,22.60
2014,09,16,12,37,22.70
2014,09,16,12,38,22.70
2014,09,16,12,39,22.70
2014,09,16,12,40,22.70
2014,09,16,12,41,22.70
2014,09,16,12,42,22.70
2014,09,16,12,43,22.70
2014,09,16,12,44,22.80
2014,09,16,12,45,22.80
2014,09,16,12,46,22.90
2014,09,16,12,47,22.90
2014,09,16,12,48,23.00
2014,09,16,12,49,23.10
2014,09,16,12,50,23.20
2014,09,16,12,51,23.30
2014,09,16,12,52,23.40
2014,09,16,12,53,23.40
2014,09,16,12,54,23.30
2014,09,16,12,55,23.30
2014,09,16,12,56,23.30
2014,09,16,12,57,23.20
2014,09,16,12,58,23.20
2014,09,16,12,59,23.20
2014,09,16,13,00,23.20
2014,09,16,13,01,23.20
2014,09,16,13,02,23.10
2014,09,16,13,03,23.20
2014,09,16,13,04,23.20
2014,09,16,13,05,23.20
2014,09,16,13,06,23.20
2014,09,16,13,07,23.30
2014,09,16,13,08,23.30
2014,09,16,13,09,23.40
2014,09,16,13,10,23.40
2014,09,16,13,11,23.40
2014,09,16,13,12,23.60
2014,09,16,13,13,23.60
2014,09,16,13,14,23.60
2014,09,16,13,15,23.60
2014,09,16,13,16,23.60
2014,09,16,13,17,23.70
2014,09,16,13,18,23.70
2014,09,16,13,19,23.80
2014,09,16,13,20,23.80
2014,09,16,13,21,23.70
2014,09,16,13,22,23.70
2014,09,16,13,23,23.70
2014,09,16,13,24,23.60
2014,09,16,13,25,23.50
2014,09,16,13,26,23.40
2014,09,16,13,27,23.40
2014,09,16,13,28,23.40
2014,09,16,13,29,23.30
2014,09,16,13,30,23.30
2014,09,16,13,31,23.30
2014,09,16,13,32,23.30
2014,09,16,13,33,23.30
2014,09,16,13,34,23.30
2014,09,16,13,35,23.30
2014,09,16,13,36,23.40
2014,09,16,13,37,23.40
2014,09,16,13,38,23.50
2014,09,16,13,39,23.60
2014,09,16,13,40,23.60
2014,09,16,13,41,23.60
2014,09,16,13,42,23.60
2014,09,16,13,43,23.60
2014,09,16,13,44,23.60
2014,09,16,13,45,23.60
2014,09,16,13,46,23.60
2014,09,16,13,47,23.70
2014,09,16,13,48,23.70
2014,09,16,13,49,23.80
2014,09,16,13,50,23.80
2014,09,16,13,51,23.80
2014,09,16,13,52,23.80
2014,09,16,13,53,23.80
2014,09,16,13,54,23.80
2014,09,16,13,55,23.80
2014,09,16,13,56,23.70
2014,09,16,13,57,23.70
2014,09,16,13,58,23.70
2014,09,16,13,59,23.70
2014,09,16,14,00,23.70
2014,09,16,14,01,23.80
2014,09,16,14,02,23.80
2014,09,16,14,03,23.90
2014,09,16,14,04,23.90
2014,09,16,14,05,24.10
2014,09,16,14,06,24.10
2014,09,16,14,07,24.10
2014,09,16,14,08,24.10
2014,09,16,14,09,24.10
2014,09,16,14,10,24.10
2014,09,16,14,11,24.10
2014,09,16,14,12,24.10
2014,09,16,14,14,24.20
2014,09,16,14,15,24.20
2014,09,16,14,16,24.20
2014,09,16,14,17,24.10
2014,09,16,14,18,24.10
2014,09,16,14,19,24.10
2014,09,16,14,20,24.00
2014,09,16,14,21,24.00
2014,09,16,14,22,23.90
2014,09,16,14,23,23.90
2014,09,16,14,24,23.90
2014,09,16,14,25,23.80
2014,09,16,14,26,23.80
2014,09,16,14,27,23.80
2014,09,16,14,28,23.70
2014,09,16,14,29,23.70
2014,09,16,14,30,23.70
2014,09,16,14,31,23.70
2014,09,16,14,32,23.70
2014,09,16,14,33,23.70
2014,09,16,14,34,23.70
2014,09,16,14,35,23.70
2014,09,16,14,36,23.80
2014,09,16,14,37,23.80
2014,09,16,14,38,23.90
2014,09,16,14,39,23.90
2014,09,16,14,40,23.90
2014,09,16,14,41,23.90
2014,09,16,14,42,23.90
2014,09,16,14,43,23.90
2014,09,16,14,44,24.00
2014,09,16,14,45,24.10
2014,09,16,14,46,24.10
2014,09,16,14,47,24.20
2014,09,16,14,48,24.20
2014,09,16,14,49,24.20
2014,09,16,14,50,24.20
2014,09,16,14,51,24.20
2014,09,16,14,52,24.20
2014,09,16,14,53,24.20
2014,09,16,14,54,24.20
2014,09,16,14,55,24.20
2014,09,16,14,56,24.20
2014,09,16,14,57,24.20
2014,09,16,14,58,24.10
2014,09,16,14,59,24.10
2014,09,16,15,00,24.00
2014,09,16,15,01,23.90
2014,09,16,15,02,23.90
2014,09,16,15,03,23.90
2014,09,16,15,04,23.80
2014,09,16,15,05,23.90
2014,09,16,15,06,23.90
2014,09,16,15,07,24.00
2014,09,16,15,08,24.10
2014,09,16,15,10,24.10
2014,09,16,15,11,24.10
2014,09,16,15,12,24.10
2014,09,16,15,13,24.20
2014,09,16,15,14,24.20
2014,09,16,15,15,24.20
2014,09,16,15,16,24.10
2014,09,16,15,17,24.10
2014,09,16,15,18,24.00
2014,09,16,15,19,23.90
2014,09,16,15,20,23.90
2014,09,16,15,21,23.90
2014,09,16,15,22,23.90
2014,09,16,15,23,23.80
2014,09,16,15,24,23.70
2014,09,16,15,25,23.70
2014,09,16,15,26,23.60
2014,09,16,15,27,23.50
2014,09,16,15,28,23.40
2014,09,16,15,29,23.40
2014,09,16,15,30,23.40
2014,09,16,15,31,23.40
2014,09,16,15,32,23.50
2014,09,16,15,33,23.50
2014,09,16,15,34,23.60
2014,09,16,15,35,23.60
2014,09,16,15,36,23.60
2014,09,16,15,37,23.70
2014,09,16,15,38,23.70
2014,09,16,15,39,23.60
2014,09,16,15,40,23.60
2014,09,16,15,41,23.50
2014,09,16,15,42,23.40
2014,09,16,15,43,23.40
2014,09,16,15,44,23.40
2014,09,16,15,45,23.50
2014,09,16,15,46,23.40
2014,09,16,15,47,23.40
2014,09,16,15,48,23.30
2014,09,16,15,49,23.30
2014,09,16,15,50,23.20
2014,09,16,15,51,23.10
2014,09,16,15,52,23.00
2014,09,16,15,53,22.90
2014,09,16,15,54,22.70
2014,09,16,15,55,22.60
2014,09,16,15,56,22.50
2014,09,16,15,57,22.40
2014,09,16,15,58,22.30
2014,09,16,15,59,22.30
2014,09,16,16,00,22.30
2014,09,16,16,01,22.30
2014,09,16,16,02,22.30
2014,09,16,16,03,22.30
2014,09,16,16,04,22.20
2014,09,16,16,05,22.20
2014,09,16,16,06,22.30
2014,09,16,16,07,22.30
2014,09,16,16,08,22.30
2014,09,16,16,10,22.30
2014,09,16,16,11,22.30
2014,09,16,16,12,22.30
2014,09,16,16,13,22.30
2014,09,16,16,14,22.30
2014,09,16,16,15,22.40
2014,09,16,16,16,22.40
2014,09,16,16,17,22.40
2014,09,16,16,18,22.40
2014,09,16,16,19,22.50
2014,09,16,16,20,22.50
2014,09,16,16,21,22.60
2014,09,16,16,22,22.60
2014,09,16,16,23,22.60
2014,09,16,16,24,22.60
2014,09,16,16,25,22.60
2014,09,16,16,26,22.50
2014,09,16,16,27,22.40
2014,09,16,16,28,22.40
2014,09,16,16,29,22.30
2014,09,16,16,30,22.30
2014,09,16,16,31,22.30
2014,09,16,16,32,22.20
2014,09,16,16,33,22.20
2014,09,16,16,34,22.10
2014,09,16,16,35,22.10
2014,09,16,16,36,22.00
2014,09,16,16,37,22.00
2014,09,16,16,38,21.90
2014,09,16,16,39,21.80
2014,09,16,16,40,21.80
2014,09,16,16,41,21.80
2014,09,16,16,42,21.70
2014,09,16,16,43,21.70
2014,09,16,16,44,21.70
2014,09,16,16,45,21.70
2014,09,16,16,46,21.60
2014,09,16,16,47,21.60
2014,09,16,16,48,21.60
2014,09,16,16,49,21.50
2014,09,16,16,50,21.50
2014,09,16,16,52,21.40
2014,09,16,16,53,21.40
2014,09,16,16,54,21.40
2014,09,16,16,55,21.50
2014,09,16,16,56,21.50
2014,09,16,16,57,21.60
2014,09,16,16,58,21.60
2014,09,16,16,59,21.70
2014,09,16,17,00,21.70
2014,09,16,17,01,21.80
2014,09,16,17,02,21.80
2014,09,16,17,03,21.80
2014,09,16,17,04,21.90
2014,09,16,17,06,21.90
2014,09,16,17,07,21.90
2014,09,16,17,08,22.00
2014,09,16,17,09,22.00
2014,09,16,17,10,22.00
2014,09,16,17,11,22.00
2014,09,16,17,12,22.00
2014,09,16,17,13,21.90
2014,09,16,17,14,21.90
2014,09,16,17,15,21.80
2014,09,16,17,16,21.80
2014,09,16,17,17,21.70
2014,09,16,17,18,21.70
2014,09,16,17,19,21.60
2014,09,16,17,20,21.60
2014,09,16,17,21,21.50
2014,09,16,17,22,21.50
2014,09,16,17,23,21.40
2014,09,16,17,24,21.40
2014,09,16,17,25,21.40
2014,09,16,17,26,21.30
2014,09,16,17,27,21.30
2014,09,16,17,28,21.20
2014,09,16,17,29,21.20
2014,09,16,17,30,21.20
2014,09,16,17,31,21.20
2014,09,16,17,32,21.10
2014,09,16,17,33,21.10
2014,09,16,17,34,21.10
2014,09,16,17,35,21.00
2014,09,16,17,36,20.90